Regional Weather Roundup
Issued by NWS

Home | Current Version | Previous Version | Graphics & Text | Print | Product List | Glossary On
Versions: 1 2 3 4 5 6 7 8 9 10 11 12 13 14 15 16 17 18 19 20 21 22 23 24 25 26 27 28 29 30 31 32 33 34 35 36 37 38 39 40 41 42 43 44 45 46 47 48 49 50
000
ASUS44 KMEG 280710
RWRTN
TENNESSEE HOURLY STATE WEATHER ROUNDUP
NATIONAL WEATHER SERVICE MEMPHIS TN
100 AM CST SAT FEB 28 2015

TNZ002-004-019-021-049-052-054-088>092-280800-
WEST TENNESSEE

CITY           SKY/WX    TMP DP  RH WIND       PRES   REMARKS
MEMPHIS INTL   CLOUDY    29  13  51 NE10      30.52F WCI  20
NWS MEMPHIS      N/A     27 N/A N/A MISG        N/A
JACKSON        CLOUDY    28  11  48 E10       30.54F WCI  19
DYERSBURG      CLOUDY    25   5  42 NE8       30.58S WCI  16
UNION CITY     CLOUDY    21  12  68 NE7       30.56S WCI  13
PARIS          CLOUDY    21   9  58 NE10      30.56F WCI  10
LEXINGTON      CLOUDY    25   7  46 NE9       30.53S WCI  15
SAVANNAH       PTCLDY    27  10  50 NE7       30.54S WCI  19
$$

TNZ008-025-027-028-033-062-065-066-280800-
NORTH MIDDLE TENNESSEE

CITY           SKY/WX    TMP DP  RH WIND       PRES   REMARKS
NASHVILLE      CLOUDY    25   8  48 NE9       30.57F WCI  15
CLARKSVILLE    CLOUDY    23  13  65 NE5       30.58R WCI  17
SMYRNA         CLOUDY    25   9  50 NE8       30.59S WCI  16
COOKEVILLE     PTCLDY    21  10  63 N5        30.53R WCI  15
CROSSVILLE     CLOUDY    20   9  62 NE8       30.48S WCI  10
$$

TNZ061-075-076-078-094-096-097-280800-
SOUTH MIDDLE TENNESSEE

CITY           SKY/WX    TMP DP  RH WIND       PRES   REMARKS
FAYETTEVILLE   MOCLDY    25  12  58 NE8         N/A  WCI  16
TULLAHOMA      MOCLDY    25  10  54 NE6       30.51S WCI  18
WINCHESTER     CLOUDY    27  14  59 NE3       30.51S
MCMINNVILLE    CLOUDY    25  10  54 NE8       30.52S WCI  16
COLUMBIA         N/A     25   9  50 NE7       30.53S WCI  17
SHELBYVILLE    PTCLDY    25  12  58 NE7       30.54S WCI  17
$$

TNZ017-018-042-046-047-280800-
NORTHEAST TENNESSEE

CITY           SKY/WX    TMP DP  RH WIND       PRES   REMARKS
TRI CITIES     PTCLDY    18  13  80 CALM      30.53R
ELIZABETHTON   PTSUNNY   16  12  86 NE3       30.51S
$$

TNZ012-013-036-069-073-074-280800-
CENTRAL EAST TENNESSEE

CITY           SKY/WX    TMP DP  RH WIND       PRES   REMARKS
KNOXVILLE      MOCLDY    25  12  58 N9        30.53S WCI  15
OAK RIDGE      CLOUDY    27  10  49 VRB6      30.55S WCI  20
GATLINBURG     SUNNY     19  18  93 CALM      30.54R
MORRISTOWN     MOSUNNY   25  12  58 E7        30.52R WCI  17
$$

TNZ083-085-099-280800-
SOUTHEAST TENNESSEE

CITY           SKY/WX    TMP DP  RH WIND       PRES   REMARKS
CHATTANOOGA    CLOUDY    31  12  45 N14       30.53S WCI  21
$$

SKY/WX REPORTED AS FAIR MEANS FEW OR NO CLOUDS BELOW
12 THOUSAND FEET.




USA.gov is the U.S. government's official web portal to all federal, state and local government web resources and services.